Weather in Semenovskoye

Russia / Yaroslavl Oblast     58°36′27″N   39°39′19″E
temp.,
°C
wind,
m/s
gust,
m/s
humid.,
%
clouds,
%
prec.,
mm/h
press.,
hPa
HPBL,
m
13 april, tue
tue1300:00+7sse51492100 0.0 1030543
03:00+6sse4119797 0.1 1029416
06:00+6se41097100 0.0 1028340
09:00+9sse41186100 0.0 1026397
12:00+15s5116585 0.0 1025664
15:00+17s51057100 0.0 10231123
18:00+15s3966100 0.0 1022273
21:00+11s3127898 0.0 1023233
14 april, wed
wed1400:00+9s3128199 0.0 1023215
03:00+8s3128032 0.0 1022215
06:00+7s312795 0.0 1021231
09:00+12s4116477 0.0 1021384
12:00+16s5948100 0.0 1020763
15:00+18s4846100 0.0 10191140
18:00+15s3955100 0.0 1018289
21:00+11s3869100 0.0 1019131
15 april, thu
thu1500:00+9wsw227480 0.0 101910
03:00+7n238962 0.0 101954
06:00+8nne369499 0.0 1020371
09:00+8nne3689100 0.0 1021425
12:00+8nne4885100 0.0 1022505
15:00+8ne5877100 0.0 1022572
18:00+6ne51181100 0.0 1023577
21:00+6ne41180100 0.0 1024628
16 april, fri
fri1600:00+5ne41078100 0.0 1024583
03:00+3ne4107380 0.0 1025432
06:00+1ne411750 0.0 1026374
09:00+5ne58545 0.0 1026648
12:00+9ne573998 0.0 10271162
15:00+10ne563725 0.0 10271359
18:00+9ne474560 0.0 1028964
21:00+4nne396728 0.0 1029188
17 april, sat
sat1700:00+3ne311705 0.0 1030279
03:00+1nne38795 0.0 1032174
06:00+1nne310865 0.0 1033295
09:00+5ne47615 0.0 1034813
12:00+8ne46374 0.0 10341388
15:00+9ne45335 0.0 10341560
18:00+8ne354228 0.0 1034976
21:00+3ne2261100 0.0 103521